Year,Month,Day,Hour,Minute,Value (Times are PST for temperature in C)
2009,08,07,00,00,14.90
2009,08,07,00,01,14.80
2009,08,07,00,02,14.80
2009,08,07,00,03,14.80
2009,08,07,00,04,14.80
2009,08,07,00,05,14.70
2009,08,07,00,06,14.70
2009,08,07,00,07,14.80
2009,08,07,00,08,14.80
2009,08,07,00,09,14.80
2009,08,07,00,10,14.80
2009,08,07,00,11,14.80
2009,08,07,00,12,14.70
2009,08,07,00,13,14.70
2009,08,07,00,14,14.70
2009,08,07,00,15,14.70
2009,08,07,00,16,14.70
2009,08,07,00,17,14.70
2009,08,07,00,18,14.70
2009,08,07,00,19,14.70
2009,08,07,00,20,14.70
2009,08,07,00,21,14.70
2009,08,07,00,22,14.70
2009,08,07,00,23,14.70
2009,08,07,00,24,14.60
2009,08,07,00,25,14.60
2009,08,07,00,26,14.60
2009,08,07,00,27,14.60
2009,08,07,00,28,14.60
2009,08,07,00,29,14.60
2009,08,07,00,30,14.60
2009,08,07,00,31,14.50
2009,08,07,00,32,14.50
2009,08,07,00,33,14.50
2009,08,07,00,34,14.50
2009,08,07,00,35,14.40
2009,08,07,00,36,14.40
2009,08,07,00,37,14.40
2009,08,07,00,38,14.40
2009,08,07,00,39,14.30
2009,08,07,00,40,14.30
2009,08,07,00,41,14.30
2009,08,07,00,42,14.30
2009,08,07,00,43,14.30
2009,08,07,00,44,14.20
2009,08,07,00,45,14.20
2009,08,07,00,46,14.20
2009,08,07,00,47,14.20
2009,08,07,00,48,14.20
2009,08,07,00,49,14.20
2009,08,07,00,50,14.20
2009,08,07,00,51,14.10
2009,08,07,00,52,14.10
2009,08,07,00,53,14.10
2009,08,07,00,54,14.10
2009,08,07,00,55,14.10
2009,08,07,00,56,14.10
2009,08,07,00,57,14.00
2009,08,07,00,58,14.00
2009,08,07,00,59,14.00
2009,08,07,01,00,14.00
2009,08,07,01,01,13.90
2009,08,07,01,02,13.90
2009,08,07,01,03,13.90
2009,08,07,01,04,13.90
2009,08,07,01,05,13.90
2009,08,07,01,06,13.90
2009,08,07,01,07,13.90
2009,08,07,01,08,13.80
2009,08,07,01,09,13.80
2009,08,07,01,10,13.80
2009,08,07,01,11,13.80
2009,08,07,01,12,13.80
2009,08,07,01,13,13.80
2009,08,07,01,14,13.80
2009,08,07,01,15,13.80
2009,08,07,01,16,13.80
2009,08,07,01,17,13.80
2009,08,07,01,18,13.80
2009,08,07,01,19,13.70
2009,08,07,01,20,13.70
2009,08,07,01,21,13.70
2009,08,07,01,22,13.70
2009,08,07,01,23,13.70
2009,08,07,01,24,13.70
2009,08,07,01,25,13.70
2009,08,07,01,26,13.70
2009,08,07,01,27,13.70
2009,08,07,01,28,13.70
2009,08,07,01,29,13.70
2009,08,07,01,30,13.60
2009,08,07,01,31,13.60
2009,08,07,01,32,13.60
2009,08,07,01,33,13.60
2009,08,07,01,34,13.60
2009,08,07,01,35,13.60
2009,08,07,01,36,13.60
2009,08,07,01,37,13.60
2009,08,07,01,38,13.60
2009,08,07,01,39,13.60
2009,08,07,01,40,13.60
2009,08,07,01,41,13.60
2009,08,07,01,42,13.60
2009,08,07,01,43,13.60
2009,08,07,01,44,13.60
2009,08,07,01,45,13.60
2009,08,07,01,46,13.60
2009,08,07,01,47,13.60
2009,08,07,01,48,13.60
2009,08,07,01,49,13.60
2009,08,07,01,50,13.50
2009,08,07,01,51,13.50
2009,08,07,01,52,13.50
2009,08,07,01,53,13.50
2009,08,07,01,54,13.50
2009,08,07,01,55,13.50
2009,08,07,01,56,13.40
2009,08,07,01,57,13.40
2009,08,07,01,58,13.40
2009,08,07,01,59,13.40
2009,08,07,02,00,13.40
2009,08,07,02,01,13.40
2009,08,07,02,02,13.40
2009,08,07,02,03,13.40
2009,08,07,02,04,13.40
2009,08,07,02,05,13.30
2009,08,07,02,06,13.30
2009,08,07,02,07,13.30
2009,08,07,02,08,13.20
2009,08,07,02,09,13.20
2009,08,07,02,10,13.20
2009,08,07,02,11,13.10
2009,08,07,02,12,13.10
2009,08,07,02,13,13.10
2009,08,07,02,14,13.10
2009,08,07,02,15,13.10
2009,08,07,02,16,13.10
2009,08,07,02,17,13.10
2009,08,07,02,18,13.10
2009,08,07,02,19,13.10
2009,08,07,02,20,13.10
2009,08,07,02,21,13.10
2009,08,07,02,22,13.10
2009,08,07,02,23,13.10
2009,08,07,02,24,13.10
2009,08,07,02,25,13.10
2009,08,07,02,26,13.10
2009,08,07,02,27,13.10
2009,08,07,02,28,13.10
2009,08,07,02,29,13.10
2009,08,07,02,30,13.10
2009,08,07,02,31,13.10
2009,08,07,02,32,13.10
2009,08,07,02,33,13.10
2009,08,07,02,34,13.10
2009,08,07,02,35,13.10
2009,08,07,02,36,13.10
2009,08,07,02,37,13.10
2009,08,07,02,38,13.10
2009,08,07,02,39,13.10
2009,08,07,02,40,13.10
2009,08,07,02,41,13.10
2009,08,07,02,42,13.10
2009,08,07,02,43,13.10
2009,08,07,02,44,13.10
2009,08,07,02,45,13.10
2009,08,07,02,46,13.10
2009,08,07,02,47,13.10
2009,08,07,02,48,13.10
2009,08,07,02,49,13.10
2009,08,07,02,50,13.10
2009,08,07,02,51,13.10
2009,08,07,02,52,13.10
2009,08,07,02,53,13.10
2009,08,07,02,54,13.10
2009,08,07,02,55,13.10
2009,08,07,02,56,13.10
2009,08,07,02,57,13.10
2009,08,07,02,58,13.10
2009,08,07,02,59,13.10
2009,08,07,03,00,13.10
2009,08,07,03,01,13.10
2009,08,07,03,02,13.10
2009,08,07,03,03,13.10
2009,08,07,03,04,13.10
2009,08,07,03,05,13.10
2009,08,07,03,06,13.10
2009,08,07,03,07,13.10
2009,08,07,03,08,13.10
2009,08,07,03,09,13.10
2009,08,07,03,10,13.10
2009,08,07,03,11,13.00
2009,08,07,03,12,13.00
2009,08,07,03,13,12.90
2009,08,07,03,14,12.90
2009,08,07,03,15,12.90
2009,08,07,03,16,12.90
2009,08,07,03,17,12.90
2009,08,07,03,18,12.90
2009,08,07,03,19,12.90
2009,08,07,03,20,12.90
2009,08,07,03,21,12.90
2009,08,07,03,22,12.90
2009,08,07,03,23,12.90
2009,08,07,03,24,12.80
2009,08,07,03,25,12.80
2009,08,07,03,26,12.80
2009,08,07,03,27,12.80
2009,08,07,03,28,12.80
2009,08,07,03,29,12.80
2009,08,07,03,30,12.80
2009,08,07,03,31,12.80
2009,08,07,03,32,12.80
2009,08,07,03,33,12.80
2009,08,07,03,34,12.80
2009,08,07,03,35,12.80
2009,08,07,03,36,12.80
2009,08,07,03,37,12.80
2009,08,07,03,38,12.80
2009,08,07,03,39,12.80
2009,08,07,03,40,12.80
2009,08,07,03,41,12.80
2009,08,07,03,42,12.70
2009,08,07,03,43,12.70
2009,08,07,03,44,12.70
2009,08,07,03,45,12.70
2009,08,07,03,46,12.70
2009,08,07,03,47,12.70
2009,08,07,03,48,12.70
2009,08,07,03,49,12.70
2009,08,07,03,50,12.70
2009,08,07,03,51,12.70
2009,08,07,03,52,12.70
2009,08,07,03,53,12.70
2009,08,07,03,54,12.70
2009,08,07,03,55,12.70
2009,08,07,03,56,12.70
2009,08,07,03,57,12.70
2009,08,07,03,58,12.70
2009,08,07,03,59,12.70
2009,08,07,04,00,12.70
2009,08,07,04,01,12.70
2009,08,07,04,02,12.70
2009,08,07,04,03,12.70
2009,08,07,04,07,12.70
2009,08,07,04,08,12.70
2009,08,07,04,09,12.70
2009,08,07,04,10,12.70
2009,08,07,04,11,12.70
2009,08,07,04,12,12.70
2009,08,07,04,13,12.70
2009,08,07,04,14,12.70
2009,08,07,04,15,12.70
2009,08,07,04,16,12.70
2009,08,07,04,17,12.70
2009,08,07,04,18,12.70
2009,08,07,04,19,12.70
2009,08,07,04,20,12.70
2009,08,07,04,21,12.70
2009,08,07,04,22,12.70
2009,08,07,04,23,12.70
2009,08,07,04,24,12.70
2009,08,07,04,25,12.70
2009,08,07,04,26,12.70
2009,08,07,04,27,12.70
2009,08,07,04,28,12.70
2009,08,07,04,29,12.70
2009,08,07,04,30,12.70
2009,08,07,04,31,12.70
2009,08,07,04,32,12.70
2009,08,07,04,33,12.70
2009,08,07,04,34,12.70
2009,08,07,04,35,12.70
2009,08,07,04,36,12.70
2009,08,07,04,37,12.70
2009,08,07,04,38,12.70
2009,08,07,04,39,12.70
2009,08,07,04,40,12.60
2009,08,07,04,41,12.60
2009,08,07,04,42,12.60
2009,08,07,04,43,12.60
2009,08,07,04,44,12.70
2009,08,07,04,45,12.70
2009,08,07,04,46,12.70
2009,08,07,04,47,12.70
2009,08,07,04,48,12.70
2009,08,07,04,49,12.70
2009,08,07,04,50,12.70
2009,08,07,04,51,12.70
2009,08,07,04,52,12.70
2009,08,07,04,53,12.70
2009,08,07,04,54,12.70
2009,08,07,04,55,12.70
2009,08,07,04,56,12.70
2009,08,07,04,57,12.70
2009,08,07,04,58,12.70
2009,08,07,04,59,12.70
2009,08,07,05,00,12.70
2009,08,07,05,01,12.70
2009,08,07,05,02,12.70
2009,08,07,05,03,12.70
2009,08,07,05,04,12.70
2009,08,07,05,05,12.70
2009,08,07,05,06,12.70
2009,08,07,05,07,12.70
2009,08,07,05,08,12.70
2009,08,07,05,09,12.70
2009,08,07,05,10,12.70
2009,08,07,05,11,12.70
2009,08,07,05,12,12.70
2009,08,07,05,13,12.70
2009,08,07,05,14,12.60
2009,08,07,05,15,12.60
2009,08,07,05,16,12.60
2009,08,07,05,17,12.60
2009,08,07,05,18,12.60
2009,08,07,05,19,12.60
2009,08,07,05,20,12.60
2009,08,07,05,21,12.60
2009,08,07,05,22,12.60
2009,08,07,05,23,12.60
2009,08,07,05,24,12.60
2009,08,07,05,25,12.60
2009,08,07,05,26,12.60
2009,08,07,05,27,12.60
2009,08,07,05,28,12.60
2009,08,07,05,29,12.60
2009,08,07,05,30,12.60
2009,08,07,05,31,12.60
2009,08,07,05,32,12.60
2009,08,07,05,33,12.60
2009,08,07,05,34,12.60
2009,08,07,05,35,12.60
2009,08,07,05,36,12.50
2009,08,07,05,37,12.50
2009,08,07,05,38,12.50
2009,08,07,05,39,12.50
2009,08,07,05,40,12.60
2009,08,07,05,41,12.60
2009,08,07,05,42,12.60
2009,08,07,05,43,12.60
2009,08,07,05,44,12.60
2009,08,07,05,45,12.60
2009,08,07,05,46,12.60
2009,08,07,05,47,12.60
2009,08,07,05,48,12.60
2009,08,07,05,49,12.60
2009,08,07,05,50,12.60
2009,08,07,05,51,12.60
2009,08,07,05,52,12.60
2009,08,07,05,53,12.60
2009,08,07,05,54,12.60
2009,08,07,05,55,12.60
2009,08,07,05,56,12.60
2009,08,07,05,57,12.60
2009,08,07,05,58,12.50
2009,08,07,05,59,12.50
2009,08,07,06,00,12.50
2009,08,07,06,01,12.50
2009,08,07,06,02,12.40
2009,08,07,06,03,12.40
2009,08,07,06,04,12.40
2009,08,07,06,05,12.40
2009,08,07,06,06,12.40
2009,08,07,06,07,12.40
2009,08,07,06,08,12.40
2009,08,07,06,09,12.30
2009,08,07,06,10,12.30
2009,08,07,06,11,12.30
2009,08,07,06,12,12.30
2009,08,07,06,13,12.30
2009,08,07,06,14,12.30
2009,08,07,06,15,12.30
2009,08,07,06,16,12.30
2009,08,07,06,17,12.30
2009,08,07,06,18,12.30
2009,08,07,06,19,12.30
2009,08,07,06,20,12.20
2009,08,07,06,21,12.20
2009,08,07,06,22,12.20
2009,08,07,06,23,12.20
2009,08,07,06,24,12.20
2009,08,07,06,25,12.20
2009,08,07,06,26,12.10
2009,08,07,06,27,12.10
2009,08,07,06,28,12.10
2009,08,07,06,29,12.10
2009,08,07,06,30,12.10
2009,08,07,06,31,12.10
2009,08,07,06,32,12.10
2009,08,07,06,33,12.10
2009,08,07,06,34,12.10
2009,08,07,06,35,12.10
2009,08,07,06,36,12.10
2009,08,07,06,37,12.10
2009,08,07,06,38,12.10
2009,08,07,06,39,12.10
2009,08,07,06,40,12.10
2009,08,07,06,41,12.00
2009,08,07,06,42,12.00
2009,08,07,06,43,12.00
2009,08,07,06,44,12.00
2009,08,07,06,45,11.90
2009,08,07,06,46,11.90
2009,08,07,06,47,11.90
2009,08,07,06,48,11.90
2009,08,07,06,49,11.90
2009,08,07,06,50,11.90
2009,08,07,06,51,11.90
2009,08,07,06,52,11.90
2009,08,07,06,53,11.90
2009,08,07,06,54,11.90
2009,08,07,06,55,11.90
2009,08,07,06,56,11.90
2009,08,07,06,57,11.90
2009,08,07,06,58,11.90
2009,08,07,06,59,11.90
2009,08,07,07,00,11.90
2009,08,07,07,01,12.00
2009,08,07,07,02,12.00
2009,08,07,07,03,12.00
2009,08,07,07,04,12.00
2009,08,07,07,05,12.00
2009,08,07,07,06,12.10
2009,08,07,07,07,12.10
2009,08,07,07,08,12.20
2009,08,07,07,09,12.20
2009,08,07,07,10,12.30
2009,08,07,07,11,12.30
2009,08,07,07,12,12.30
2009,08,07,07,13,12.40
2009,08,07,07,14,12.40
2009,08,07,07,15,12.40
2009,08,07,07,16,12.50
2009,08,07,07,17,12.60
2009,08,07,07,18,12.60
2009,08,07,07,19,12.60
2009,08,07,07,20,12.70
2009,08,07,07,21,12.70
2009,08,07,07,22,12.80
2009,08,07,07,23,12.80
2009,08,07,07,24,12.90
2009,08,07,07,25,12.90
2009,08,07,07,26,13.00
2009,08,07,07,27,13.00
2009,08,07,07,28,13.10
2009,08,07,07,29,13.10
2009,08,07,07,30,13.20
2009,08,07,07,31,13.30
2009,08,07,07,32,13.30
2009,08,07,07,33,13.30
2009,08,07,07,34,13.40
2009,08,07,07,35,13.40
2009,08,07,07,36,13.50
2009,08,07,07,37,13.60
2009,08,07,07,38,13.60
2009,08,07,07,39,13.70
2009,08,07,07,40,13.70
2009,08,07,07,41,13.70
2009,08,07,07,42,13.80
2009,08,07,07,43,13.80
2009,08,07,07,44,13.90
2009,08,07,07,45,13.90
2009,08,07,07,46,13.90
2009,08,07,07,47,14.00
2009,08,07,07,48,14.00
2009,08,07,07,49,14.00
2009,08,07,07,50,14.10
2009,08,07,07,51,14.10
2009,08,07,07,52,14.20
2009,08,07,07,53,14.20
2009,08,07,07,54,14.30
2009,08,07,07,55,14.30
2009,08,07,07,56,14.30
2009,08,07,07,57,14.40
2009,08,07,07,58,14.40
2009,08,07,07,59,14.40
2009,08,07,08,00,14.40
2009,08,07,08,01,14.40
2009,08,07,08,02,14.40
2009,08,07,08,03,14.40
2009,08,07,08,04,14.40
2009,08,07,08,05,14.40
2009,08,07,08,06,14.40
2009,08,07,08,07,14.50
2009,08,07,08,08,14.50
2009,08,07,08,09,14.50
2009,08,07,08,10,14.50
2009,08,07,08,11,14.60
2009,08,07,08,12,14.60
2009,08,07,08,13,14.60
2009,08,07,08,14,14.60
2009,08,07,08,15,14.60
2009,08,07,08,16,14.70
2009,08,07,08,17,14.70
2009,08,07,08,18,14.70
2009,08,07,08,19,14.70
2009,08,07,08,20,14.80
2009,08,07,08,21,14.90
2009,08,07,08,22,15.00
2009,08,07,08,23,15.00
2009,08,07,08,24,15.00
2009,08,07,08,25,15.00
2009,08,07,08,26,15.10
2009,08,07,08,27,15.20
2009,08,07,08,28,15.30
2009,08,07,08,29,15.40
2009,08,07,08,30,15.50
2009,08,07,08,31,15.60
2009,08,07,08,32,15.60
2009,08,07,08,33,15.60
2009,08,07,08,34,15.60
2009,08,07,08,35,15.70
2009,08,07,08,36,15.70
2009,08,07,08,37,15.80
2009,08,07,08,38,15.80
2009,08,07,08,39,15.90
2009,08,07,08,40,15.90
2009,08,07,08,41,15.90
2009,08,07,08,42,15.90
2009,08,07,08,43,16.00
2009,08,07,08,44,15.90
2009,08,07,08,45,15.90
2009,08,07,08,46,15.90
2009,08,07,08,47,15.90
2009,08,07,08,48,15.90
2009,08,07,08,49,15.90
2009,08,07,08,50,15.90
2009,08,07,08,51,15.90
2009,08,07,08,52,15.90
2009,08,07,08,53,16.00
2009,08,07,08,54,16.00
2009,08,07,08,55,16.10
2009,08,07,08,56,16.10
2009,08,07,08,57,16.20
2009,08,07,08,58,16.20
2009,08,07,08,59,16.30
2009,08,07,09,00,16.30
2009,08,07,09,01,16.30
2009,08,07,09,02,16.40
2009,08,07,09,03,16.40
2009,08,07,09,04,16.40
2009,08,07,09,05,16.50
2009,08,07,09,06,16.50
2009,08,07,09,07,16.60
2009,08,07,09,08,16.60
2009,08,07,09,09,16.70
2009,08,07,09,10,16.70
2009,08,07,09,11,16.80
2009,08,07,09,12,16.80
2009,08,07,09,13,16.90
2009,08,07,09,14,16.90
2009,08,07,09,15,17.00
2009,08,07,09,16,17.10
2009,08,07,09,17,17.10
2009,08,07,09,18,17.20
2009,08,07,09,19,17.20
2009,08,07,09,20,17.30
2009,08,07,09,21,17.30
2009,08,07,09,22,17.30
2009,08,07,09,23,17.40
2009,08,07,09,24,17.50
2009,08,07,09,25,17.50
2009,08,07,09,26,17.50
2009,08,07,09,27,17.50
2009,08,07,09,28,17.50
2009,08,07,09,29,17.60
2009,08,07,09,30,17.60
2009,08,07,09,31,17.70
2009,08,07,09,32,17.70
2009,08,07,09,33,17.80
2009,08,07,09,34,17.80
2009,08,07,09,35,17.80
2009,08,07,09,36,17.80
2009,08,07,09,37,17.80
2009,08,07,09,38,17.90
2009,08,07,09,39,17.90
2009,08,07,09,40,17.90
2009,08,07,09,41,18.00
2009,08,07,09,42,18.00
2009,08,07,09,43,18.10
2009,08,07,09,44,18.10
2009,08,07,09,45,18.20
2009,08,07,09,46,18.20
2009,08,07,09,47,18.20
2009,08,07,09,48,18.20
2009,08,07,09,49,18.30
2009,08,07,09,50,18.30
2009,08,07,09,51,18.30
2009,08,07,09,52,18.40
2009,08,07,09,53,18.40
2009,08,07,09,54,18.40
2009,08,07,09,55,18.40
2009,08,07,09,56,18.40
2009,08,07,09,57,18.40
2009,08,07,09,58,18.40
2009,08,07,09,59,18.40
2009,08,07,10,00,18.30
2009,08,07,10,01,18.30
2009,08,07,10,02,18.30
2009,08,07,10,03,18.40
2009,08,07,10,04,18.40
2009,08,07,10,05,18.50
2009,08,07,10,06,18.50
2009,08,07,10,07,18.60
2009,08,07,10,08,18.70
2009,08,07,10,09,18.80
2009,08,07,10,10,18.90
2009,08,07,10,11,19.00
2009,08,07,10,12,19.00
2009,08,07,10,13,19.10
2009,08,07,10,14,19.10
2009,08,07,10,15,19.10
2009,08,07,10,16,19.10
2009,08,07,10,17,19.00
2009,08,07,10,18,19.00
2009,08,07,10,19,19.00
2009,08,07,10,20,19.00
2009,08,07,10,21,19.00
2009,08,07,10,22,19.00
2009,08,07,10,23,18.90
2009,08,07,10,24,19.00
2009,08,07,10,25,19.00
2009,08,07,10,26,19.10
2009,08,07,10,27,19.10
2009,08,07,10,28,19.00
2009,08,07,10,29,18.90
2009,08,07,10,30,18.90
2009,08,07,10,31,18.80
2009,08,07,10,32,18.80
2009,08,07,10,33,18.90
2009,08,07,10,34,18.90
2009,08,07,10,35,18.90
2009,08,07,10,36,18.90
2009,08,07,10,37,18.80
2009,08,07,10,38,18.70
2009,08,07,10,39,18.60
2009,08,07,10,40,18.50
2009,08,07,10,41,18.40
2009,08,07,10,42,18.50
2009,08,07,10,43,18.50
2009,08,07,10,44,18.60
2009,08,07,10,45,18.60
2009,08,07,10,46,18.60
2009,08,07,10,47,18.60
2009,08,07,10,48,18.70
2009,08,07,10,49,18.70
2009,08,07,10,50,18.70
2009,08,07,10,51,18.70
2009,08,07,10,52,18.70
2009,08,07,10,53,18.80
2009,08,07,10,54,18.90
2009,08,07,10,55,19.00
2009,08,07,10,56,19.10
2009,08,07,10,57,19.20
2009,08,07,10,58,19.30
2009,08,07,10,59,19.30
2009,08,07,11,00,19.40
2009,08,07,11,01,19.50
2009,08,07,11,02,19.50
2009,08,07,11,03,19.60
2009,08,07,11,04,19.70
2009,08,07,11,05,19.60
2009,08,07,11,06,19.50
2009,08,07,11,07,19.40
2009,08,07,11,08,19.30
2009,08,07,11,09,19.30
2009,08,07,11,10,19.30
2009,08,07,11,11,19.30
2009,08,07,11,12,19.30
2009,08,07,11,13,19.40
2009,08,07,11,14,19.50
2009,08,07,11,15,19.60
2009,08,07,11,16,19.70
2009,08,07,11,17,19.70
2009,08,07,11,18,19.60
2009,08,07,11,19,19.50
2009,08,07,11,20,19.40
2009,08,07,11,21,19.30
2009,08,07,11,22,19.30
2009,08,07,11,23,19.20
2009,08,07,11,24,19.20
2009,08,07,11,25,19.10
2009,08,07,11,26,19.10
2009,08,07,11,27,19.00
2009,08,07,11,28,18.90
2009,08,07,11,29,18.80
2009,08,07,11,30,18.80
2009,08,07,11,31,18.80
2009,08,07,11,32,18.80
2009,08,07,11,33,18.80
2009,08,07,11,34,18.80
2009,08,07,11,35,18.80
2009,08,07,11,36,18.80
2009,08,07,11,37,18.80
2009,08,07,11,38,18.80
2009,08,07,11,39,18.70
2009,08,07,11,40,18.60
2009,08,07,11,41,18.60
2009,08,07,11,42,18.60
2009,08,07,11,43,18.70
2009,08,07,11,44,18.70
2009,08,07,11,45,18.80
2009,08,07,11,46,18.80
2009,08,07,11,47,18.80
2009,08,07,11,48,18.90
2009,08,07,11,49,18.90
2009,08,07,11,50,18.90
2009,08,07,11,51,18.90
2009,08,07,11,52,19.00
2009,08,07,11,53,19.00
2009,08,07,11,54,18.90
2009,08,07,11,55,18.90
2009,08,07,11,56,18.90
2009,08,07,11,57,18.90
2009,08,07,11,58,18.90
2009,08,07,11,59,18.80
2009,08,07,12,00,18.80
2009,08,07,12,01,18.80
2009,08,07,12,02,18.80
2009,08,07,12,03,18.80
2009,08,07,12,04,18.90
2009,08,07,12,05,18.90
2009,08,07,12,06,19.00
2009,08,07,12,07,19.10
2009,08,07,12,08,19.20
2009,08,07,12,09,19.20
2009,08,07,12,10,19.10
2009,08,07,12,11,19.00
2009,08,07,12,12,19.00
2009,08,07,12,13,19.10
2009,08,07,12,14,19.20
2009,08,07,12,15,19.20
2009,08,07,12,16,19.30
2009,08,07,12,17,19.40
2009,08,07,12,18,19.40
2009,08,07,12,19,19.50
2009,08,07,12,20,19.40
2009,08,07,12,21,19.40
2009,08,07,12,22,19.20
2009,08,07,12,23,19.00
2009,08,07,12,24,18.90
2009,08,07,12,25,18.80
2009,08,07,12,26,18.80
2009,08,07,12,27,18.70
2009,08,07,12,28,18.70
2009,08,07,12,29,18.70
2009,08,07,12,30,18.60
2009,08,07,12,31,18.70
2009,08,07,12,32,18.70
2009,08,07,12,33,18.80
2009,08,07,12,34,19.00
2009,08,07,12,35,19.10
2009,08,07,12,36,19.00
2009,08,07,12,37,19.00
2009,08,07,12,38,19.00
2009,08,07,12,39,19.10
2009,08,07,12,40,19.10
2009,08,07,12,41,19.20
2009,08,07,12,42,19.20
2009,08,07,12,43,19.20
2009,08,07,12,44,19.20
2009,08,07,12,45,19.30
2009,08,07,12,46,19.40
2009,08,07,12,47,19.50
2009,08,07,12,48,19.60
2009,08,07,12,49,19.60
2009,08,07,12,50,19.50
2009,08,07,12,51,19.50
2009,08,07,12,52,19.30
2009,08,07,12,53,19.20
2009,08,07,12,54,19.10
2009,08,07,12,55,19.10
2009,08,07,12,56,19.10
2009,08,07,12,57,19.20
2009,08,07,12,58,19.20
2009,08,07,12,59,19.20
2009,08,07,13,00,19.30
2009,08,07,13,01,19.30
2009,08,07,13,02,19.30
2009,08,07,13,03,19.30
2009,08,07,13,04,19.40
2009,08,07,13,05,19.40
2009,08,07,13,06,19.50
2009,08,07,13,07,19.60
2009,08,07,13,08,19.60
2009,08,07,13,09,19.60
2009,08,07,13,10,19.50
2009,08,07,13,11,19.40
2009,08,07,13,12,19.40
2009,08,07,13,13,19.50
2009,08,07,13,14,19.50
2009,08,07,13,15,19.50
2009,08,07,13,16,19.50
2009,08,07,13,17,19.60
2009,08,07,13,18,19.70
2009,08,07,13,19,19.90
2009,08,07,13,20,20.00
2009,08,07,13,21,20.10
2009,08,07,13,22,20.20
2009,08,07,13,23,20.10
2009,08,07,13,24,20.10
2009,08,07,13,25,20.00
2009,08,07,13,26,20.00
2009,08,07,13,27,20.00
2009,08,07,13,28,20.10
2009,08,07,13,29,20.10
2009,08,07,13,30,20.10
2009,08,07,13,31,20.20
2009,08,07,13,32,20.00
2009,08,07,13,33,19.90
2009,08,07,13,34,19.90
2009,08,07,13,35,20.00
2009,08,07,13,36,20.00
2009,08,07,13,37,20.00
2009,08,07,13,38,19.90
2009,08,07,13,39,19.90
2009,08,07,13,40,19.90
2009,08,07,13,41,19.80
2009,08,07,13,42,19.70
2009,08,07,13,43,19.70
2009,08,07,13,44,19.70
2009,08,07,13,45,19.60
2009,08,07,13,46,19.60
2009,08,07,13,47,19.70
2009,08,07,13,48,19.80
2009,08,07,13,49,19.90
2009,08,07,13,50,20.00
2009,08,07,13,51,20.00
2009,08,07,13,52,19.90
2009,08,07,13,53,19.90
2009,08,07,13,54,20.00
2009,08,07,13,55,19.90
2009,08,07,13,56,19.90
2009,08,07,13,57,19.90
2009,08,07,13,58,20.00
2009,08,07,13,59,19.90
2009,08,07,14,00,19.90
2009,08,07,14,01,19.90
2009,08,07,14,02,19.90
2009,08,07,14,03,19.80
2009,08,07,14,04,19.80
2009,08,07,14,05,19.80
2009,08,07,14,06,19.80
2009,08,07,14,07,19.70
2009,08,07,14,08,19.70
2009,08,07,14,09,19.60
2009,08,07,14,10,19.60
2009,08,07,14,11,19.60
2009,08,07,14,12,19.60
2009,08,07,14,13,19.50
2009,08,07,14,14,19.50
2009,08,07,14,15,19.50
2009,08,07,14,16,19.60
2009,08,07,14,17,19.60
2009,08,07,14,18,19.70
2009,08,07,14,19,19.60
2009,08,07,14,20,19.60
2009,08,07,14,21,19.50
2009,08,07,14,22,19.50
2009,08,07,14,23,19.60
2009,08,07,14,24,19.50
2009,08,07,14,25,19.50
2009,08,07,14,26,19.50
2009,08,07,14,27,19.40
2009,08,07,14,28,19.40
2009,08,07,14,29,19.30
2009,08,07,14,30,19.40
2009,08,07,14,31,19.40
2009,08,07,14,32,19.40
2009,08,07,14,33,19.40
2009,08,07,14,34,19.40
2009,08,07,14,35,19.50
2009,08,07,14,36,19.60
2009,08,07,14,37,19.60
2009,08,07,14,38,19.50
2009,08,07,14,39,19.60
2009,08,07,14,40,19.60
2009,08,07,14,41,19.60
2009,08,07,14,42,19.60
2009,08,07,14,43,19.50
2009,08,07,14,44,19.50
2009,08,07,14,45,19.40
2009,08,07,14,46,19.40
2009,08,07,14,47,19.40
2009,08,07,14,48,19.50
2009,08,07,14,49,19.50
2009,08,07,14,50,19.60
2009,08,07,14,51,19.60
2009,08,07,14,52,19.70
2009,08,07,14,53,19.80
2009,08,07,14,54,19.80
2009,08,07,14,55,19.80
2009,08,07,14,56,19.80
2009,08,07,14,57,19.80
2009,08,07,14,58,19.80
2009,08,07,14,59,19.80
2009,08,07,15,00,19.80
2009,08,07,15,01,19.90
2009,08,07,15,02,19.90
2009,08,07,15,03,19.90
2009,08,07,15,04,20.00
2009,08,07,15,05,20.10
2009,08,07,15,06,20.20
2009,08,07,15,07,20.20
2009,08,07,15,08,20.20
2009,08,07,15,09,20.20
2009,08,07,15,10,20.10
2009,08,07,15,11,20.10
2009,08,07,15,12,20.10
2009,08,07,15,13,20.10
2009,08,07,15,14,20.10
2009,08,07,15,15,20.10
2009,08,07,15,16,20.00
2009,08,07,15,17,19.90
2009,08,07,15,18,20.00
2009,08,07,15,19,20.00
2009,08,07,15,20,19.90
2009,08,07,15,21,19.90
2009,08,07,15,22,19.90
2009,08,07,15,23,19.90
2009,08,07,15,24,19.90
2009,08,07,15,25,20.00
2009,08,07,15,26,20.00
2009,08,07,15,27,20.10
2009,08,07,15,28,20.20
2009,08,07,15,29,20.20
2009,08,07,15,30,20.30
2009,08,07,15,31,20.20
2009,08,07,15,32,20.10
2009,08,07,15,33,20.10
2009,08,07,15,34,20.10
2009,08,07,15,35,20.10
2009,08,07,15,36,20.20
2009,08,07,15,37,20.30
2009,08,07,15,38,20.40
2009,08,07,15,39,20.40
2009,08,07,15,40,20.50
2009,08,07,15,41,20.50
2009,08,07,15,42,20.40
2009,08,07,15,43,20.30
2009,08,07,15,44,20.20
2009,08,07,15,45,20.30
2009,08,07,15,46,20.30
2009,08,07,15,47,20.40
2009,08,07,15,48,20.50
2009,08,07,15,49,20.50
2009,08,07,15,50,20.40
2009,08,07,15,51,20.40
2009,08,07,15,52,20.30
2009,08,07,15,53,20.20
2009,08,07,15,54,20.20
2009,08,07,15,55,20.10
2009,08,07,15,56,20.00
2009,08,07,15,57,19.90
2009,08,07,15,58,19.90
2009,08,07,15,59,20.00
2009,08,07,16,00,20.00
2009,08,07,16,01,20.10
2009,08,07,16,02,20.20
2009,08,07,16,03,20.30
2009,08,07,16,04,20.40
2009,08,07,16,05,20.50
2009,08,07,16,06,20.50
2009,08,07,16,07,20.40
2009,08,07,16,08,20.20
2009,08,07,16,09,20.10
2009,08,07,16,10,20.00
2009,08,07,16,11,19.90
2009,08,07,16,12,19.90
2009,08,07,16,13,20.00
2009,08,07,16,14,20.00
2009,08,07,16,15,20.00
2009,08,07,16,16,20.00
2009,08,07,16,17,20.00
2009,08,07,16,18,20.00
2009,08,07,16,19,19.90
2009,08,07,16,20,19.90
2009,08,07,16,21,19.90
2009,08,07,16,22,20.00
2009,08,07,16,23,20.10
2009,08,07,16,24,20.10
2009,08,07,16,25,20.10
2009,08,07,16,26,20.10
2009,08,07,16,27,20.20
2009,08,07,16,28,20.10
2009,08,07,16,29,20.10
2009,08,07,16,30,20.10
2009,08,07,16,31,20.10
2009,08,07,16,32,20.10
2009,08,07,16,33,20.10
2009,08,07,16,34,20.10
2009,08,07,16,35,20.20
2009,08,07,16,36,20.30
2009,08,07,16,37,20.30
2009,08,07,16,38,20.40
2009,08,07,16,39,20.40
2009,08,07,16,40,20.40
2009,08,07,16,41,20.40
2009,08,07,16,42,20.30
2009,08,07,16,43,20.20
2009,08,07,16,44,20.10
2009,08,07,16,45,20.10
2009,08,07,16,46,20.10
2009,08,07,16,47,20.10
2009,08,07,16,48,20.10
2009,08,07,16,49,20.10
2009,08,07,16,50,20.10
2009,08,07,16,51,20.10
2009,08,07,16,52,20.10
2009,08,07,16,53,20.10
2009,08,07,16,54,20.10
2009,08,07,16,55,20.20
2009,08,07,16,56,20.20
2009,08,07,16,57,20.20
2009,08,07,16,58,20.30
2009,08,07,16,59,20.20
2009,08,07,17,00,20.20
2009,08,07,17,01,20.10
2009,08,07,17,02,20.10
2009,08,07,17,03,20.10
2009,08,07,17,04,20.20
2009,08,07,17,05,20.10
2009,08,07,17,06,20.00
2009,08,07,17,07,20.00
2009,08,07,17,08,20.00
2009,08,07,17,09,20.00
2009,08,07,17,10,20.10
2009,08,07,17,11,20.10
2009,08,07,17,12,20.10
2009,08,07,17,13,20.10
2009,08,07,17,14,20.10
2009,08,07,17,15,20.10
2009,08,07,17,16,20.00
2009,08,07,17,17,20.00
2009,08,07,17,18,20.10
2009,08,07,17,19,20.10
2009,08,07,17,20,20.00
2009,08,07,17,21,20.00
2009,08,07,17,22,20.00